Weather History for Mitchell, SD

Change the Weather History Date:

Friday, December 16, 2011

  Actual Average Record
Temperature  
Mean Temperature 24 °F 20 °F  
Max Temperature 36 °F 29 °F 65 °F (1939)
Min Temperature 11 °F 12 °F -24 °F (1901)
Degree Days  
Heating Degree Days 41 45  
Month to date heating degree days 650 680  
Since 1 July heating degree days 2012 2248  
Cooling Degree Days 0 0  
Month to date cooling degree days 0 0  
Year to date cooling degree days 994 824  
Moisture  
Dew Point 17 °F    
Average Humidity 78    
Maximum Humidity 88    
Minimum Humidity 57    
Precipitation  
Precipitation 0.00 in 0.01 in 0.53 in (1915)
Month to date precipitation 0.04 0.28  
Year to date precipitation 19.16 21.35  
Snow  
Snow 0.00 in - 6.00 in (1915)
Month to date snowfall T  
Since 1 July snowfall T  
Snow Depth 0.00 in    
Sea Level Pressure  
Sea Level Pressure 30.35 in    
Wind  
Wind Speed 7 mph (WSW)    
Max Wind Speed 16 mph    
Max Gust Speed 20 mph    
Visibility 10 miles    
Events      
T = Trace of Precipitation, MM = Missing Value Source: NWS Daily Summary

Daily Weather History Graph

Daily Weather History Graph

Search for Another Location

Airport:

Trip Planner

Search our weather history database for the weather conditions in past years. The results will help you decide how hot, cold, wet, or windy it might be!

Date:

Astronomy

Dec. 16, 2011 Rise Set
Actual Time 7:59 AM CST 4:55 PM CST
Civil Twilight 7:26 AM CST 5:28 PM CST
Nautical Twilight 6:50 AM CST 6:04 PM CST
Astronomical Twilight 6:15 AM CST 6:39 PM CST
Moon 11:42 PM CST (12/16) 11:35 AM CST (12/16)
Length of Visible Light 10h 01m
Length of Day
8h 56m
Waning Gibbous, 64% of the Moon is Illuminated
Dec 16
Waning Gibbous
Dec 17
Last Quarter
Dec 24
New
Jan 1
First Quarter
Jan 9
Full

Hourly Weather History & Observations

Time (CST) Temp. Windchill Dew Point Humidity Pressure Visibility Wind Dir Wind Speed Gust Speed Precip Events Conditions
12:53 AM 16.0 °F 8.8 °F 12.0 °F 84% 30.45 in 8.0 mi SSW 4.6 mph - N/A   Clear
1:53 AM 15.1 °F 9.4 °F 12.0 °F 88% 30.43 in 7.0 mi South 3.5 mph - N/A   Clear
2:53 AM 12.0 °F 4.1 °F 9.0 °F 88% 30.43 in 7.0 mi SE 4.6 mph - N/A   Clear
4:53 AM 12.9 °F 2.6 °F 10.0 °F 88% 30.40 in 8.0 mi SSE 6.9 mph - N/A   Clear
6:53 AM 18.0 °F 6.1 °F 15.1 °F 88% 30.36 in 10.0 mi SSE 10.4 mph - N/A   Scattered Clouds
7:53 AM 19.0 °F 9.0 °F 16.0 °F 88% 30.36 in 10.0 mi SE 8.1 mph - N/A   Mostly Cloudy
8:53 AM 23.0 °F 11.7 °F 19.0 °F 85% 30.36 in 10.0 mi SSE 11.5 mph - N/A   Overcast
9:53 AM 25.0 °F 12.2 °F 21.0 °F 85% 30.34 in 10.0 mi South 16.1 mph - N/A   Overcast
10:53 AM 30.0 °F 21.1 °F 21.9 °F 72% 30.34 in 10.0 mi South 10.4 mph - N/A   Mostly Cloudy
11:53 AM 33.1 °F 28.7 °F 21.9 °F 64% 30.32 in 10.0 mi Variable 4.6 mph - N/A   Mostly Cloudy
12:53 PM 36.0 °F 32.1 °F 21.9 °F 57% 30.30 in - Variable 4.6 mph - N/A   Unknown
1:53 PM 35.1 °F 32.2 °F 21.9 °F 59% 30.29 in - Variable 3.5 mph - N/A   Unknown
2:53 PM 35.1 °F 28.6 °F 21.0 °F 57% 30.29 in 10.0 mi NNW 8.1 mph - N/A   Clear
3:53 PM 33.1 °F 25.5 °F 21.0 °F 61% 30.31 in 10.0 mi NNW 9.2 mph - N/A   Clear
4:53 PM 28.0 °F 21.7 °F 19.0 °F 69% 30.32 in 10.0 mi NNW 5.8 mph - N/A   Clear
5:53 PM 25.0 °F 16.3 °F 18.0 °F 75% 30.34 in 10.0 mi NW 8.1 mph - N/A   Clear
6:53 PM 25.0 °F 16.3 °F 19.0 °F 78% 30.35 in 10.0 mi NW 8.1 mph - N/A   Clear
7:53 PM 21.0 °F 12.4 °F 17.1 °F 85% 30.36 in 10.0 mi NW 6.9 mph - N/A   Clear
8:53 PM 21.0 °F 12.4 °F 17.1 °F 85% 30.35 in 10.0 mi WNW 6.9 mph - N/A   Clear
9:53 PM 19.9 °F 12.1 °F 16.0 °F 85% 30.35 in 10.0 mi WNW 5.8 mph - N/A   Clear
10:53 PM 18.0 °F 9.8 °F 15.1 °F 88% 30.36 in 10.0 mi WNW 5.8 mph - N/A   Clear
11:53 PM 18.0 °F 9.8 °F 15.1 °F 88% 30.36 in 10.0 mi West 5.8 mph - N/A   Clear